When you browse on this site, cookies collect data to enhance your experience and personalize the content and advertising you see.
Visit our Privacy Policy to learn more. By continuing to use the site, you agree to this use of cookies and data.
  • In Lithuania
  • List of Countries
  • For 7 days
  • Water Temperature
  • Satellite Maps
  • Weather Map
  • Weather Widgets
  • user-avatar
    Login

    Hourly Weather Maracay

    Today, 27 May, Monday

    Time Temperature Precipitation Wind Pressure Humidity
    00:00 +25°C° 0.8 mm 1 mps 711 mmHg 88%
    01:00 +23°C° 0 mm 0 mps 710 mmHg 88%
    02:00 +23°C° 0.7 mm 0 mps 711 mmHg 88%
    03:00 +23°C° 0.7 mm 0 mps 711 mmHg 88%
    04:00 +22°C° 0.7 mm 0 mps 711 mmHg 89%
    05:00 +23°C° 0.1 mm 0 mps 711 mmHg 87%
    06:00 +23°C° 0.1 mm 0 mps 711 mmHg 85%
    07:00 +24°C° 0.1 mm 0 mps 712 mmHg 83%
    08:00 +27°C° 0 mm 1 mps 712 mmHg 75%
    09:00 +29°C° 0 mm 1 mps 712 mmHg 67%
    10:00 +30°C° 0 mm 1 mps 713 mmHg 59%
    11:00 +31°C° 0 mm 2 mps 712 mmHg 55%
    12:00 +32°C° 0 mm 2 mps 712 mmHg 52%
    13:00 +34°C° 0 mm 2 mps 711 mmHg 48%
    14:00 +32°C° 0 mm 1 mps 711 mmHg 51%
    15:00 +31°C° 0 mm 1 mps 710 mmHg 53%
    16:00 +31°C° 0 mm 1 mps 710 mmHg 56%
    17:00 +29°C° 0 mm 1 mps 710 mmHg 62%
    18:00 +26°C° 0 mm 0 mps 710 mmHg 68%
    19:00 +24°C° 0 mm 0 mps 710 mmHg 75%
    20:00 +24°C° 0 mm 0 mps 710 mmHg 75%
    21:00 +24°C° 0 mm 0 mps 711 mmHg 76%
    22:00 +23°C° 0 mm 0 mps 711 mmHg 76%
    23:00 +23°C° 0 mm 0 mps 711 mmHg 77%

    Tomorrow, 28 May, Tuesday

    Time Temperature Precipitation Wind Pressure Humidity
    00:00 +23°C° 0 mm 0 mps 711 mmHg 78%
    01:00 +23°C° 0 mm 0 mps 710 mmHg 78%
    02:00 +23°C° 0 mm 0 mps 710 mmHg 78%
    03:00 +22°C° 0 mm 0 mps 710 mmHg 77%
    04:00 +22°C° 0 mm 0 mps 710 mmHg 77%
    05:00 +25°C° 0 mm 1 mps 710 mmHg 74%
    06:00 +26°C° 0 mm 1 mps 711 mmHg 71%
    07:00 +27°C° 0 mm 1 mps 712 mmHg 68%
    08:00 +29°C° 0 mm 1 mps 712 mmHg 64%
    09:00 +30°C° 0 mm 2 mps 712 mmHg 61%
    10:00 +31°C° 0 mm 2 mps 712 mmHg 58%
    11:00 +32°C° 0.3 mm 2 mps 712 mmHg 58%
    12:00 +32°C° 0.3 mm 2 mps 711 mmHg 59%
    13:00 +32°C° 0.3 mm 2 mps 710 mmHg 59%
    14:00 +31°C° 0.9 mm 1 mps 710 mmHg 62%
    15:00 +31°C° 0.9 mm 1 mps 709 mmHg 65%
    16:00 +30°C° 0.9 mm 1 mps 709 mmHg 68%
    17:00 +29°C° 0.2 mm 1 mps 709 mmHg 72%
    18:00 +27°C° 0.2 mm 1 mps 709 mmHg 77%
    19:00 +24°C° 0.2 mm 0 mps 710 mmHg 81%
    20:00 +24°C° 0.1 mm 0 mps 710 mmHg 82%
    21:00 +26°C° 0.1 mm 1 mps 711 mmHg 83%
    22:00 +25°C° 0.1 mm 1 mps 711 mmHg 84%
    23:00 +25°C° 0.2 mm 1 mps 711 mmHg 85%

    Day after tomorrow, 29 May, Wednesday

    Time Temperature Precipitation Wind Pressure Humidity
    00:00 +25°C° 0.2 mm 1 mps 710 mmHg 86%
    01:00 +23°C° 0.2 mm 0 mps 710 mmHg 87%
    02:00 +23°C° 0.1 mm 0 mps 710 mmHg 86%
    03:00 +25°C° 0.1 mm 1 mps 710 mmHg 85%
    04:00 +25°C° 0.1 mm 1 mps 710 mmHg 85%
    05:00 +25°C° 0.1 mm 1 mps 710 mmHg 82%
    06:00 +26°C° 0.1 mm 1 mps 711 mmHg 79%
    07:00 +27°C° 0.1 mm 2 mps 711 mmHg 76%
    08:00 +28°C° 0 mm 2 mps 712 mmHg 71%
    09:00 +30°C° 0 mm 2 mps 712 mmHg 66%
    10:00 +31°C° 0 mm 3 mps 712 mmHg 62%
    11:00 +31°C° 0.8 mm 3 mps 712 mmHg 63%
    12:00 +31°C° 0.8 mm 3 mps 711 mmHg 65%
    13:00 +31°C° 0.8 mm 2 mps 711 mmHg 66%
    14:00 +30°C° 1.1 mm 2 mps 710 mmHg 70%
    15:00 +29°C° 1.1 mm 2 mps 710 mmHg 74%
    16:00 +28°C° 1.1 mm 1 mps 709 mmHg 78%
    17:00 +27°C° 0.7 mm 1 mps 709 mmHg 82%
    18:00 +26°C° 0.7 mm 1 mps 710 mmHg 85%
    19:00 +25°C° 0.7 mm 1 mps 710 mmHg 89%
    20:00 +23°C° 0 mm 0 mps 710 mmHg 89%
    21:00 +23°C° 0 mm 0 mps 711 mmHg 89%
    22:00 +23°C° 0 mm 0 mps 711 mmHg 89%
    23:00 +23°C° 0.1 mm 0 mps 711 mmHg 89%

    30 May, Thursday

    Time Temperature Precipitation Wind Pressure Humidity
    00:00 +23°C° 0.1 mm 0 mps 710 mmHg 89%
    01:00 +22°C° 0.1 mm 0 mps 710 mmHg 89%
    02:00 +22°C° 0.1 mm 0 mps 710 mmHg 88%
    03:00 +22°C° 0.1 mm 0 mps 710 mmHg 88%
    04:00 +22°C° 0.1 mm 0 mps 710 mmHg 88%
    05:00 +23°C° 0 mm 0 mps 710 mmHg 86%
    06:00 +25°C° 0 mm 1 mps 711 mmHg 84%
    07:00 +26°C° 0 mm 1 mps 711 mmHg 82%
    08:00 +28°C° 0.1 mm 1 mps 711 mmHg 75%
    09:00 +29°C° 0.1 mm 1 mps 712 mmHg 68%
    10:00 +31°C° 0.1 mm 2 mps 712 mmHg 61%
    11:00 +30°C° 1.7 mm 2 mps 711 mmHg 65%
    12:00 +30°C° 1.7 mm 1 mps 711 mmHg 69%
    13:00 +29°C° 1.7 mm 1 mps 710 mmHg 72%
    14:00 +28°C° 3.3 mm 1 mps 710 mmHg 78%
    15:00 +27°C° 3.3 mm 1 mps 709 mmHg 84%
    16:00 +24°C° 3.3 mm 0 mps 709 mmHg 89%
    17:00 +23°C° 2.4 mm 0 mps 709 mmHg 90%
    18:00 +23°C° 2.4 mm 0 mps 710 mmHg 90%
    19:00 +23°C° 2.4 mm 0 mps 710 mmHg 91%
    20:00 +23°C° 1.4 mm 0 mps 711 mmHg 91%
    21:00 +22°C° 1.4 mm 0 mps 711 mmHg 91%
    22:00 +22°C° 1.4 mm 0 mps 711 mmHg 91%
    23:00 +22°C° 1.6 mm 0 mps 711 mmHg 91%

    31 May, Friday

    Time Temperature Precipitation Wind Pressure Humidity
    00:00 +22°C° 1.6 mm 0 mps 710 mmHg 91%
    01:00 +22°C° 1.6 mm 0 mps 710 mmHg 91%
    02:00 +22°C° 1.6 mm 0 mps 710 mmHg 91%
    03:00 +24°C° 1.6 mm 1 mps 710 mmHg 92%
    04:00 +24°C° 1.6 mm 1 mps 710 mmHg 92%
    05:00 +24°C° 1.3 mm 1 mps 710 mmHg 91%
    06:00 +24°C° 1.3 mm 1 mps 711 mmHg 91%
    07:00 +24°C° 1.3 mm 1 mps 711 mmHg 90%
    08:00 +25°C° 0.4 mm 1 mps 711 mmHg 87%
    09:00 +26°C° 0.4 mm 1 mps 711 mmHg 84%
    10:00 +27°C° 0.4 mm 1 mps 712 mmHg 81%
    11:00 +28°C° 0.2 mm 2 mps 711 mmHg 75%
    12:00 +29°C° 0.2 mm 2 mps 710 mmHg 70%
    13:00 +30°C° 0.2 mm 2 mps 710 mmHg 65%
    14:00 +29°C° 0.6 mm 1 mps 709 mmHg 69%
    15:00 +29°C° 0.6 mm 1 mps 709 mmHg 72%
    16:00 +28°C° 0.6 mm 1 mps 709 mmHg 75%
    17:00 +27°C° 0.6 mm 1 mps 709 mmHg 80%
    18:00 +26°C° 0.6 mm 1 mps 709 mmHg 84%
    19:00 +25°C° 0.6 mm 1 mps 710 mmHg 89%
    20:00 +25°C° 0.3 mm 1 mps 710 mmHg 90%
    21:00 +24°C° 0.3 mm 1 mps 710 mmHg 90%
    22:00 +24°C° 0.3 mm 1 mps 711 mmHg 91%
    23:00 +24°C° 0.2 mm 1 mps 710 mmHg 92%

    1 June, Saturday

    Time Temperature Precipitation Wind Pressure Humidity
    00:00 +24°C° 0.2 mm 1 mps 710 mmHg 92%
    01:00 +24°C° 0.2 mm 1 mps 709 mmHg 93%
    02:00 +24°C° 0.2 mm 1 mps 709 mmHg 93%
    03:00 +24°C° 0.2 mm 1 mps 709 mmHg 92%
    04:00 +23°C° 0.2 mm 1 mps 709 mmHg 92%
    05:00 +24°C° 0.3 mm 1 mps 710 mmHg 91%
    06:00 +24°C° 0.3 mm 1 mps 710 mmHg 90%
    07:00 +24°C° 0.3 mm 1 mps 711 mmHg 89%
    08:00 +25°C° 0.4 mm 1 mps 711 mmHg 85%
    09:00 +26°C° 0.4 mm 1 mps 711 mmHg 82%
    10:00 +26°C° 0.4 mm 2 mps 711 mmHg 78%
    11:00 +27°C° 0.1 mm 2 mps 711 mmHg 74%
    12:00 +28°C° 0.1 mm 2 mps 710 mmHg 71%
    13:00 +29°C° 0.1 mm 2 mps 710 mmHg 67%
    14:00 +28°C° 0.1 mm 2 mps 710 mmHg 69%
    15:00 +28°C° 0.1 mm 2 mps 709 mmHg 71%
    16:00 +28°C° 0.1 mm 2 mps 709 mmHg 72%
    17:00 +27°C° 0.2 mm 1 mps 709 mmHg 76%
    18:00 +26°C° 0.2 mm 1 mps 710 mmHg 80%
    19:00 +24°C° 0.2 mm 1 mps 710 mmHg 84%
    20:00 +24°C° 0.4 mm 1 mps 710 mmHg 85%
    21:00 +24°C° 0.4 mm 1 mps 711 mmHg 86%
    22:00 +24°C° 0.4 mm 1 mps 711 mmHg 87%
    23:00 +24°C° 0.6 mm 1 mps 711 mmHg 87%
    Show more